De Xin Hai — BQBP — position and weather

sailwx.info

Track history (hours):
 
Tides and Currents Weather Stations Pressure Air Temp Water Temp Dewpoint Dewpoint Depression Visibility Wind Speed Wind Dir Waves Ship Positions

De Xin Hai

Last reported at 2014-Jul-24 01:32 UTC. Time now 2014-Jul-24 02:06 UTC.
Position N 54°39' E 004°54'.

Length 225 m; draft 6.9 m.

Type: Cargo ship. MMSI: 367344200.

Date/timePositionNaut miles runAvg speedWind from/ knotsBaromVisibWave heightAir tempDewpointWater temp
2014-Jul-24 01:32N 54°39' E 004°54'1111.8
2014-Jul-24 00:33N 54°49' E 005°04'19611.3
2014-Jul-23 07:16N 57°26' E 008°34'811.1
2014-Jul-23 06:33N 57°30' E 008°47'1111.1
2014-Jul-23 05:32N 57°36' E 009°05'1111.1
2014-Jul-23 04:33N 57°41' E 009°23'1211.2
2014-Jul-23 03:32N 57°47' E 009°41'1111.5
2014-Jul-23 02:33N 57°48' E 010°02'1111.3
2014-Jul-23 01:33N 57°49' E 010°23'1110.9
2014-Jul-23 00:33N 57°49' E 010°44'1010.1
2014-Jul-22 23:33N 57°42' E 010°58'1110.9
2014-Jul-22 22:33N 57°35' E 011°13'1111.2
2014-Jul-22 21:33N 57°27' E 011°27'1111.0
2014-Jul-22 20:31N 57°16' E 011°34'1010.7
2014-Jul-22 19:33N 57°06' E 011°40'1110.6
2014-Jul-22 18:33N 56°56' E 011°47'1010.4
2014-Jul-22 17:33N 56°46' E 011°53'10 9.8
2014-Jul-22 16:31N 56°37' E 011°46'1010.1
2014-Jul-22 15:30N 56°28' E 011°36'1110.7
2014-Jul-22 14:30N 56°19' E 011°25'1010.9
2014-Jul-22 13:33N 56°10' E 011°16'1111.2
2014-Jul-22 12:33N 56°01' E 011°05'51 9.2
2014-Jul-22 07:04N 55°10' E 011°01'510.6
2014-Jul-22 06:33N 55°05' E 010°60'1111.0
2014-Jul-22 05:33N 54°55' E 010°52'1211.9
2014-Jul-22 04:33N 54°43' E 010°47'1010.5
2014-Jul-22 03:33N 54°36' E 010°60'1211.7
2014-Jul-22 02:33N 54°34' E 011°20'1211.9
2014-Jul-22 01:33N 54°28' E 011°38'1111.3
2014-Jul-22 00:33N 54°26' E 011°57'1010.0
2014-Jul-21 23:33N 54°30' E 012°13'10 9.8
2014-Jul-21 22:33N 54°38' E 012°22'1111.2
2014-Jul-21 21:33N 54°45' E 012°38'1111.1
2014-Jul-21 20:33N 54°50' E 012°55'311.0
2014-Jul-21 20:18N 54°51' E 012°60'811.1
2014-Jul-21 19:32N 54°54' E 013°13'1111.1
2014-Jul-21 18:33N 54°57' E 013°31'1111.2
2014-Jul-21 17:33N 55°01' E 013°50'1111.0
2014-Jul-21 16:32N 55°06' E 014°07'1111.2
2014-Jul-21 15:33N 55°15' E 014°19'1111.4
2014-Jul-21 14:33N 55°23' E 014°32'1111.0
2014-Jul-21 13:33N 55°30' E 014°47'1211.2
2014-Jul-21 12:32N 55°35' E 015°06'1311.3
2014-Jul-21 11:23N 55°39' E 015°28'1011.5
2014-Jul-21 10:33N 55°42' E 015°44'2311.5
2014-Jul-21 08:32N 55°48' E 016°24'1211.4
2014-Jul-21 07:30N 55°50' E 016°44'1211.4
2014-Jul-21 06:27N 55°53' E 017°05'1011.4
2014-Jul-21 05:33N 55°56' E 017°22'1411.4
2014-Jul-21 04:21N 55°60' E 017°46'911.6
2014-Jul-21 03:33N 56°05' E 017°60'1211.6
2014-Jul-21 02:33N 56°11' E 018°17'1211.6
2014-Jul-21 01:33N 56°18' E 018°35'1111.5
2014-Jul-21 00:33N 56°25' E 018°51'1211.5
2014-Jul-20 23:33N 56°34' E 019°04'1211.6
2014-Jul-20 22:33N 56°43' E 019°17'1211.6
2014-Jul-20 21:33N 56°52' E 019°31'1211.8
2014-Jul-20 20:33N 57°01' E 019°45'1211.9
2014-Jul-20 19:33N 57°10' E 019°59'1412.0
2014-Jul-20 18:25N 57°20' E 020°15'1011.9
2014-Jul-20 17:33N 57°28' E 020°28'1211.7
2014-Jul-20 16:33N 57°37' E 020°42'1311.0
2014-Jul-20 15:22N 57°46' E 020°60'911.5
2014-Jul-20 14:33N 57°49' E 021°16'  
Track history (hours):
 
Tides and Currents Weather Stations Pressure Air Temp Water Temp Dewpoint Dewpoint Depression Visibility Wind Speed Wind Dir Waves Ship Positions

De Xin Hai

Last reported at 2014-Jul-24 01:32 UTC. Time now 2014-Jul-24 02:06 UTC.
Position N 54°39' E 004°54'.

Length 225 m; draft 6.9 m.

Type: Cargo ship. MMSI: 367344200.

Date/timePositionNaut miles runAvg speedWind from/ knotsBaromVisibWave heightAir tempDewpointWater temp
2014-Jul-24 01:32N 54°39' E 004°54'1111.8
2014-Jul-24 00:33N 54°49' E 005°04'19611.3
2014-Jul-23 07:16N 57°26' E 008°34'811.1
2014-Jul-23 06:33N 57°30' E 008°47'1111.1
2014-Jul-23 05:32N 57°36' E 009°05'1111.1
2014-Jul-23 04:33N 57°41' E 009°23'1211.2
2014-Jul-23 03:32N 57°47' E 009°41'1111.5
2014-Jul-23 02:33N 57°48' E 010°02'1111.3
2014-Jul-23 01:33N 57°49' E 010°23'1110.9
2014-Jul-23 00:33N 57°49' E 010°44'1010.1
2014-Jul-22 23:33N 57°42' E 010°58'1110.9
2014-Jul-22 22:33N 57°35' E 011°13'1111.2
2014-Jul-22 21:33N 57°27' E 011°27'1111.0
2014-Jul-22 20:31N 57°16' E 011°34'1010.7
2014-Jul-22 19:33N 57°06' E 011°40'1110.6
2014-Jul-22 18:33N 56°56' E 011°47'1010.4
2014-Jul-22 17:33N 56°46' E 011°53'10 9.8
2014-Jul-22 16:31N 56°37' E 011°46'1010.1
2014-Jul-22 15:30N 56°28' E 011°36'1110.7
2014-Jul-22 14:30N 56°19' E 011°25'1010.9
2014-Jul-22 13:33N 56°10' E 011°16'1111.2
2014-Jul-22 12:33N 56°01' E 011°05'51 9.2
2014-Jul-22 07:04N 55°10' E 011°01'510.6
2014-Jul-22 06:33N 55°05' E 010°60'1111.0
2014-Jul-22 05:33N 54°55' E 010°52'1211.9
2014-Jul-22 04:33N 54°43' E 010°47'1010.5
2014-Jul-22 03:33N 54°36' E 010°60'1211.7
2014-Jul-22 02:33N 54°34' E 011°20'1211.9
2014-Jul-22 01:33N 54°28' E 011°38'1111.3
2014-Jul-22 00:33N 54°26' E 011°57'1010.0
2014-Jul-21 23:33N 54°30' E 012°13'10 9.8
2014-Jul-21 22:33N 54°38' E 012°22'1111.2
2014-Jul-21 21:33N 54°45' E 012°38'1111.1
2014-Jul-21 20:33N 54°50' E 012°55'311.0
2014-Jul-21 20:18N 54°51' E 012°60'811.1
2014-Jul-21 19:32N 54°54' E 013°13'1111.1
2014-Jul-21 18:33N 54°57' E 013°31'1111.2
2014-Jul-21 17:33N 55°01' E 013°50'1111.0
2014-Jul-21 16:32N 55°06' E 014°07'1111.2
2014-Jul-21 15:33N 55°15' E 014°19'1111.4
2014-Jul-21 14:33N 55°23' E 014°32'1111.0
2014-Jul-21 13:33N 55°30' E 014°47'1211.2
2014-Jul-21 12:32N 55°35' E 015°06'1311.3
2014-Jul-21 11:23N 55°39' E 015°28'1011.5
2014-Jul-21 10:33N 55°42' E 015°44'2311.5
2014-Jul-21 08:32N 55°48' E 016°24'1211.4
2014-Jul-21 07:30N 55°50' E 016°44'1211.4
2014-Jul-21 06:27N 55°53' E 017°05'1011.4
2014-Jul-21 05:33N 55°56' E 017°22'1411.4
2014-Jul-21 04:21N 55°60' E 017°46'911.6
2014-Jul-21 03:33N 56°05' E 017°60'1211.6
2014-Jul-21 02:33N 56°11' E 018°17'1211.6
2014-Jul-21 01:33N 56°18' E 018°35'1111.5
2014-Jul-21 00:33N 56°25' E 018°51'1211.5
2014-Jul-20 23:33N 56°34' E 019°04'1211.6
2014-Jul-20 22:33N 56°43' E 019°17'1211.6
2014-Jul-20 21:33N 56°52' E 019°31'1211.8
2014-Jul-20 20:33N 57°01' E 019°45'1211.9
2014-Jul-20 19:33N 57°10' E 019°59'1412.0
2014-Jul-20 18:25N 57°20' E 020°15'1011.9
2014-Jul-20 17:33N 57°28' E 020°28'1211.7
2014-Jul-20 16:33N 57°37' E 020°42'1311.0
2014-Jul-20 15:22N 57°46' E 020°60'911.5
2014-Jul-20 14:33N 57°49' E 021°16'  

Dump ship's entire track history